{"data":{"norad_id":62168,"intl_designator":"2024-225F","name":"STARLINK-32562","alt_names":[],"object_type":"PAYLOAD","status":"ACTIVE","operator":null,"country":"US","launch_date":"2024-11-30","launch_site_code":"AFWTR","launch_vehicle":null,"mission":null,"orbit_class":"UNKNOWN","rcs_meters":null,"size_class":null,"mass_kg":null,"dimensions":null,"purposes":["comms"],"wikipedia_slug":null,"has_3d_model":false,"image_url":null,"decayed_at":null,"tle_current":{"epoch":"2026-05-24T22:06:32.774688Z","epoch_age_seconds":75221,"freshness":"FRESH","line1":"1 62168U 24225F   26144.92121267  .00002584  00000+0  22426-3 0  9992","line2":"2 62168  70.0019 332.2513 0002054 266.6964  93.3960 14.98334452 81294","mean_motion":14.98334452,"eccentricity":0.0002054,"inclination_deg":70.0019,"raan_deg":332.2513,"arg_perigee_deg":266.6964,"mean_anomaly_deg":93.396,"bstar":0.00022426,"rev_number":8129,"period_min":96.106713563041,"perigee_km":570.61455674378,"apogee_km":573.46969032773,"semimajor_km":6950.1791235358,"source":"CELESTRAK","updated_at":"2026-05-25T13:38:19.601230Z"}}}